User: anonymous   Login
Location: Unspecified
(0.0000°N, 0.0000°E)
Time: 07:10:30
(UTC+01:00)
Language:

ARIANE 5 R/B - Orbit

View from above orbital plane
View from above orbital plane
View from above satellite
View from above satellite

Ground track
Ground track

The orbit data is extracted from the following two-line orbital elements,

1 27387U 02009B   17080.83081121 -.00000009 +00000-0 +11703-4 0  9994
2 27387 098.4545 031.9154 0033243 040.8843 319.4828 14.35923315788968
Epoch (UTC): 21 March 2017 19:56:22
Eccentricity: 0.0033243
inclination: 98.4545°
perigee height: 748 km
apogee height: 796 km
right ascension of ascending node: 31.9154°
argument of perigee: 40.8843°
revolutions per day: 14.35923315
mean anomaly at epoch: 319.4828°
orbit number at epoch: 78896

The dashed part of the orbit path shows where the satellite is in the earth's shadow,  

DLR